Regional Weather Roundup
Issued by NWS State College, PA

Home | Current Version | Previous Version | Graphics & Text | Print | Product List | Glossary On
Versions: 1 2 3 4 5 6 7 8 9 10 11 12 13 14 15 16 17 18 19 20 21 22 23 24 25 26 27 28 29 30 31 32 33 34 35 36 37 38 39 40 41 42 43 44 45 46 47 48 49 50
366
ASUS41 KCTP 081910
RWRCTP

REGIONAL WEATHER ROUNDUP
NATIONAL WEATHER SERVICE STATE COLLEGE PA
200 PM EST MON FEB 08 2016

Note: "fair" indicates few or no clouds below 12,000 feet with no
significant weather and/or obstructions to visibility.

* = STATION THAT DOES NOT REPORT PRECIPITATION /E.G. RAIN...SNOW...ETC/
    THUNDER OR FOG.

PAZ002>004-007>009-013>016-020>023-029>032-082000-
WESTERN PENNSYLVANIA

CITY           SKY/WX    TMP DP  RH WIND       PRES   REMARKS
ERIE           CLOUDY    44  27  51 S12       29.55F
MEADVILLE      CLOUDY    40  27  59 VRB3G17   29.53F
FRANKLIN*      CLOUDY    43  27  52 S10       29.55F
NEW CASTLE     CLOUDY    44  27  51 S10       29.54F
BEAVER COUNTY  CLOUDY    43  27  52 S15G25    29.54F
BUTLER*        MOSUNNY   45  25  45 S12G17    29.57F
PITTSBURGH INT LGT RAIN  42  27  55 SW21G26   29.55F
PITTSBURGH     CLOUDY    47  24  40 S15       29.53F
INDIANA*       PTSUNNY   43  23  45 S7G14     29.60F
LATROBE        MOSUNNY   45  23  42 SE17      29.57F
WASHINGTON CO* CLOUDY    36  32  87 S8        29.58R
$$

PAZ004>006-010>012-017>019-024>028-033>037-041-042-045-046-049>053-082000-
CENTRAL PENNSYLVANIA

CITY           SKY/WX    TMP DP  RH WIND       PRES   REMARKS
BRADFORD       CLOUDY    38  21  50 SE9       29.56F
DUBOIS         CLOUDY    41  20  43 SE12      29.55F
CLEARFIELD     CLOUDY    43  20  39 E8        29.60F
JOHNSTOWN      CLOUDY    37  17  44 SE12G20   29.55F
ALTOONA        PTSUNNY   40  19  43 S9        29.62F
STATE COLLEGE  PTSUNNY   41  21  45 S6        29.63F
WILLIAMSPORT   SUNNY     41  24  51 VRB5      29.67F
SELINSGROVE    PTSUNNY   44  26  49 SW3       29.68F
FT INDIANTOWN  CLOUDY    42  27  56 VRB3      29.69F
CAPITAL CITY   MOSUNNY   41  25  53 E7        29.69F
HARRISBURG     PTSUNNY   42  27  55 SE5       29.69F
YORK           PTSUNNY   43  27  53 E6        29.68F
$$

PAZ038>040-043-044-047-048-054-055-060>062-067>071-082000-
EASTERN PENNSYLVANIA

CITY           SKY/WX    TMP DP  RH WIND       PRES   REMARKS
SCRANTON       MOSUNNY   39  22  50 E7        29.65F
MOUNT POCONO   CLOUDY    33  18  53 E9        29.62F
ALLENTOWN      MOSUNNY   43  24  47 E12       29.70F
QUAKERTOWN*    CLOUDY    41  27  56 E7        29.70S
READING        CLOUDY    40  26  57 N5        29.68F
LANCASTER      CLOUDY    40  28  62 E7        29.70F
COATESVILLE    CLOUDY    39  28  65 E9        29.69F
POTTSTOWN      CLOUDY    39  26  59 E5        29.71F
BLUE BELL        N/A     37  28  70 CALM      29.70S
DOYLESTOWN     CLOUDY    39  23  52 E6        29.69S
WILLOW GROVE   NOT AVBL
NORTH PHILA    CLOUDY    42  26  53 N8        29.72F
PHILADELPHIA   CLOUDY    42  25  50 E9        29.72S
$$




USA.gov is the U.S. government's official web portal to all federal, state and local government web resources and services.